Date String (YYYY-MM-DD hh:mm:ss) UTC,Instrument flags,Ambient pressure (hPa),Sample flow (lpm),Bypass flow (lpm),Sample temperature (°C),Ambient temperature (°C),ASC tube jacket temperature (°C),LED temperature (°C),Box temperature (°C),Sample RH (%),Span deviation,Mass concentration (μg/m³),Mass concentration (μg/m³),Mass concentration (μg/m³)
DateTimeUTC,F1_M11,P_M11,Q1_M11,Q2_M11,T1_M11,T2_M11,T3_M11,T4_M11,T5_M11,U1_M11,ZSPAN_M11,X0_M11,X2_M11,X1_M11
2023-04-25 12:00:00,,0823.1,5.00,0.00,25.7,24.0,00.0,34.0,27.3,21.9,0000.0,0006.50,0003.60,0003.08
2023-04-25 12:01:00,,0822.9,5.00,0.00,25.7,24.0,00.0,34.0,27.3,22.1,0000.0,0006.67,0003.61,0003.08
2023-04-25 12:02:00,,0822.8,4.99,0.00,25.7,24.0,00.0,34.0,27.3,22.2,0000.0,0006.67,0003.61,0003.08
2023-04-25 12:03:00,,0822.8,4.99,0.00,25.6,24.0,00.0,34.0,27.3,22.1,0000.0,0006.49,0003.60,0003.08
2023-04-25 12:04:00,,0822.8,5.01,0.00,25.6,24.0,00.0,34.0,27.3,22.1,0000.0,0006.35,0003.58,0003.07
2023-04-25 12:05:00,,0822.8,5.00,0.00,25.6,24.0,00.0,34.0,27.3,22.1,0000.0,0006.57,0003.61,0003.08
2023-04-25 12:06:00,,0822.8,5.00,0.00,25.6,24.0,00.0,34.0,27.3,22.0,0000.0,0006.62,0003.63,0003.10
2023-04-25 12:07:00,,0822.8,5.01,0.00,25.6,24.0,00.0,34.0,27.2,22.0,0000.0,0006.68,0003.64,0003.10
2023-04-25 12:08:00,,0822.9,5.00,0.00,25.6,24.0,00.0,34.0,27.2,22.0,0000.0,0006.69,0003.64,0003.11
2023-04-25 12:09:00,,0822.8,5.00,0.00,25.6,24.0,00.0,34.0,27.2,22.0,0000.0,0006.61,0003.61,0003.11
2023-04-25 12:10:00,,0822.8,5.00,0.00,25.6,24.0,00.0,34.0,27.2,22.1,0000.0,0007.39,0003.62,0003.12
2023-04-25 12:11:00,,0823.0,5.00,0.00,25.6,23.9,00.0,34.0,27.2,22.1,0000.0,0007.50,0003.66,0003.14
2023-04-25 12:12:00,,0823.1,5.00,0.00,25.6,23.9,00.0,34.0,27.2,22.1,0000.0,0007.39,0003.64,0003.14
2023-04-25 12:13:00,,0822.8,5.00,0.00,25.6,23.9,00.0,34.0,27.2,22.1,0000.0,0007.40,0003.66,0003.15
2023-04-25 12:14:00,,0823.0,5.00,0.00,25.5,23.9,00.0,34.0,27.2,22.1,0000.0,0007.43,0003.66,0003.15
2023-04-25 12:15:00,,0822.9,5.00,0.00,25.5,23.9,00.0,34.0,27.2,22.1,0000.0,0007.35,0003.64,0003.15
2023-04-25 12:16:00,,0822.8,5.00,0.00,25.5,23.8,00.0,34.0,27.2,22.1,0000.0,0007.30,0003.64,0003.14
2023-04-25 12:17:00,,0823.0,5.00,0.00,25.5,23.8,00.0,33.9,27.1,22.0,0000.0,0007.23,0003.62,0003.13
2023-04-25 12:18:00,,0823.0,5.00,0.00,25.5,23.8,00.0,33.9,27.1,22.1,0000.0,0007.11,0003.58,0003.13
2023-04-25 12:19:00,,0823.2,5.00,0.00,25.5,23.8,00.0,33.9,27.1,22.0,0000.0,0007.13,0003.58,0003.12
2023-04-25 12:20:00,,0823.1,5.00,0.00,25.5,23.8,00.0,33.9,27.1,21.9,0000.0,0007.17,0003.57,0003.11
2023-04-25 12:21:00,,0823.0,5.00,0.00,25.5,23.8,00.0,33.9,27.1,21.9,0000.0,0005.98,0003.58,0003.11
2023-04-25 12:22:00,,0823.2,5.00,0.00,25.4,23.7,00.0,33.9,27.1,21.9,0000.0,0005.79,0003.55,0003.09
2023-04-25 12:23:00,,0823.2,5.00,0.00,25.4,23.7,00.0,33.9,27.1,21.9,0000.0,0005.76,0003.54,0003.09
2023-04-25 12:24:00,,0823.1,5.00,0.00,25.4,23.7,00.0,33.9,27.1,21.8,0000.0,0006.19,0003.52,0003.07
2023-04-25 12:25:00,,0823.2,5.00,0.00,25.4,23.7,00.0,33.9,27.0,21.8,0000.0,0007.31,0003.49,0003.05
2023-04-25 12:26:00,,0823.2,5.00,0.00,25.4,23.7,00.0,33.8,27.0,21.7,0000.0,0007.40,0003.50,0003.05
2023-04-25 12:27:00,,0823.1,5.00,0.00,25.4,23.7,00.0,33.8,27.0,21.7,0000.0,0007.35,0003.48,0003.05
2023-04-25 12:28:00,,0823.0,5.00,0.00,25.4,23.7,00.0,33.8,27.0,21.7,0000.0,0007.35,0003.48,0003.03
2023-04-25 12:29:00,,0822.7,5.00,0.00,25.4,23.7,00.0,33.8,27.0,21.6,0000.0,0007.47,0003.51,0003.01
2023-04-25 12:30:00,,0822.8,5.00,0.00,25.4,23.7,00.0,33.8,27.0,21.6,0000.0,0007.44,0003.50,0002.99
2023-04-25 12:31:00,,0822.7,5.01,0.00,25.4,23.7,00.0,33.8,27.0,21.6,0000.0,0007.47,0003.51,0002.99
2023-04-25 12:32:00,,0822.8,5.00,0.00,25.4,23.7,00.0,33.8,27.0,21.6,0000.0,0007.42,0003.50,0002.99
2023-04-25 12:33:00,,0823.2,4.99,0.00,25.3,23.7,00.0,33.8,27.0,21.6,0000.0,0007.46,0003.51,0002.98
2023-04-25 12:34:00,,0822.9,5.00,0.00,25.3,23.7,00.0,33.8,27.0,21.7,0000.0,0007.53,0003.51,0002.97
2023-04-25 12:35:00,,0822.9,5.01,0.00,25.3,23.7,00.0,33.8,27.0,21.7,0000.0,0007.06,0003.50,0002.97
2023-04-25 12:36:00,,0823.0,5.01,0.00,25.3,23.7,00.0,33.8,27.0,21.7,0000.0,0006.03,0003.47,0002.96
2023-04-25 12:37:00,,0822.9,5.00,0.00,25.3,23.7,00.0,33.8,27.0,21.7,0000.0,0005.82,0003.44,0002.93
2023-04-25 12:38:00,,0822.9,4.99,0.00,25.3,23.7,00.0,33.7,27.0,21.6,0000.0,0005.79,0003.45,0002.93
2023-04-25 12:39:00,,0823.0,5.00,0.00,25.3,23.7,00.0,33.7,27.0,21.6,0000.0,0005.87,0003.47,0002.93
2023-04-25 12:40:00,,0823.0,5.00,0.00,25.3,23.7,00.0,33.7,26.9,21.5,0000.0,0005.69,0003.45,0002.92
2023-04-25 12:41:00,,0823.0,4.99,0.00,25.3,23.7,00.0,33.7,26.9,21.2,0000.0,0005.67,0003.44,0002.91
2023-04-25 12:42:00,,0823.0,5.01,0.00,25.3,23.7,00.0,33.7,26.9,21.1,0000.0,0005.93,0003.43,0002.91
2023-04-25 12:43:00,,0823.0,5.00,0.00,25.3,23.7,00.0,33.7,26.9,21.1,0000.0,0005.89,0003.42,0002.92
2023-04-25 12:44:00,,0823.0,5.00,0.00,25.3,23.7,00.0,33.7,26.9,21.2,0000.0,0005.88,0003.41,0002.93
2023-04-25 12:45:00,,0823.0,5.00,0.00,25.3,23.7,00.0,33.7,26.9,21.3,0000.0,0005.69,0003.39,0002.94
2023-04-25 12:46:00,,0823.0,4.99,0.00,25.3,23.7,00.0,33.7,26.9,21.3,0000.0,0005.72,0003.44,0002.94
2023-04-25 12:47:00,,0823.0,4.99,0.00,25.3,23.7,00.0,33.7,26.9,21.3,0000.0,0005.74,0003.46,0002.94
2023-04-25 12:48:00,,0822.9,5.00,0.00,25.3,23.7,00.0,33.7,26.9,21.3,0000.0,0005.82,0003.47,0002.95
2023-04-25 12:49:00,,0823.0,5.01,0.00,25.3,23.7,00.0,33.7,26.9,21.3,0000.0,0005.79,0003.46,0002.93
2023-04-25 12:50:00,,0823.0,5.00,0.00,25.3,23.6,00.0,33.7,26.9,21.4,0000.0,0005.74,0003.44,0002.93
2023-04-25 12:51:00,,0823.0,5.00,0.00,25.3,23.6,00.0,33.7,26.9,21.5,0000.0,0005.77,0003.44,0002.95
2023-04-25 12:52:00,,0823.0,5.00,0.00,25.3,23.6,00.0,33.7,26.9,21.9,0000.0,0005.73,0003.45,0002.98
2023-04-25 12:53:00,,0823.0,5.01,0.00,25.3,23.7,00.0,33.7,26.9,21.9,0000.0,0005.34,0003.47,0003.01
2023-04-25 12:54:00,,0823.0,5.00,0.00,25.3,23.7,00.0,33.7,26.9,21.8,0000.0,0005.33,0003.48,0003.01
2023-04-25 12:55:00,,0823.1,5.00,0.00,25.3,23.7,00.0,33.7,26.9,21.6,0000.0,0005.37,0003.49,0003.00
2023-04-25 12:56:00,,0823.1,5.00,0.00,25.3,23.7,00.0,33.7,26.9,21.5,0000.0,0005.57,0003.51,0003.00
2023-04-25 12:57:00,,0823.0,5.00,0.00,25.3,23.7,00.0,33.7,26.9,21.5,0000.0,0005.48,0003.47,0002.98
2023-04-25 12:58:00,,0823.0,5.00,0.00,25.3,23.7,00.0,33.7,26.9,21.5,0000.0,0005.58,0003.45,0002.97
2023-04-25 12:59:00,,0823.0,5.00,0.00,25.3,23.7,00.0,33.7,26.9,21.3,0000.0,0005.86,0003.45,0002.97
